GFSSW_850_thetae_063.txt.gz
Theta_e
310 310 308 308 309 310 309 309 309 309 309 310 310 310 310 310 310 314 318 317 313 312 313 313 313 317 317 316 314 314 309 310 311 315 321 328 329 330 329 329 328 330 331 333 335
311 311 310 308 308 309 309 309 309 309 309 310 311 310 310 310 313 318 316 316 315 314 314 314 313 316 316 317 315 309 307 310 311 322 326 326 327 328 328 327 328 333 332 336 335
317 313 311 310 307 308 309 309 309 309 309 310 310 310 310 310 313 318 317 316 317 314 313 314 313 314 315 314 315 311 311 310 325 327 326 324 326 327 327 325 326 332 335 335 334
321 318 313 312 309 307 309 308 308 309 309 310 310 310 310 309 317 318 318 317 316 315 315 315 317 317 315 315 315 313 312 317 323 325 324 324 326 326 325 326 327 331 331 332 331
322 321 319 313 312 308 308 308 308 308 310 311 310 310 310 309 310 313 318 318 317 316 314 315 316 317 315 315 315 312 322 324 326 326 325 324 324 323 326 328 327 332 331 330 329
320 322 321 319 313 311 307 308 308 308 310 311 310 309 309 310 312 317 319 319 319 318 316 315 318 318 317 316 317 320 322 321 324 324 324 321 322 323 328 329 329 329 330 329 328
314 320 322 321 317 313 308 307 307 308 311 310 310 309 309 310 311 319 319 319 319 320 319 319 319 319 319 318 319 322 320 320 322 323 321 322 322 323 325 329 329 327 322 328 327
314 318 320 321 320 315 311 306 307 308 311 310 309 309 309 310 310 316 318 318 320 320 320 320 320 319 319 319 317 316 317 322 320 321 322 321 323 322 325 330 330 328 322 328 327
309 312 318 319 321 317 313 307 307 308 311 310 309 309 310 314 316 316 318 318 319 319 318 319 318 319 318 317 314 314 316 320 322 320 320 319 322 323 325 331 331 330 329 328 328
302 306 317 316 321 319 314 306 307 310 314 316 311 311 309 315 318 318 317 319 317 320 319 319 319 316 314 314 317 317 317 318 320 319 320 320 319 322 324 330 331 331 330 328 327
299 305 316 314 320 319 314 306 311 319 318 317 312 310 310 314 317 318 318 317 317 319 318 318 316 316 317 317 318 320 319 318 317 315 320 319 318 318 325 326 328 330 330 329 325
298 303 314 313 319 320 314 306 310 313 312 314 314 316 318 319 319 319 318 317 319 318 318 317 318 317 319 319 320 320 320 319 318 316 318 317 318 316 321 323 327 329 329 328 326
298 301 314 313 318 319 314 309 318 317 313 315 315 316 315 315 319 319 318 318 317 317 317 317 318 318 320 320 320 319 320 319 319 316 317 315 318 318 322 323 324 328 328 328 324
298 299 314 313 316 318 312 319 317 313 314 316 321 318 316 317 317 318 318 319 318 317 317 318 318 319 320 319 319 320 318 318 319 315 317 316 318 318 320 324 321 324 326 327 325
303 299 314 312 317 311 317 318 316 318 310 313 320 319 317 316 316 316 317 318 316 318 317 317 319 319 319 318 318 319 319 319 320 318 318 319 316 315 317 324 323 320 322 323 326
307 301 313 314 317 317 317 316 318 321 316 318 320 319 315 314 316 317 317 318 317 318 318 316 318 317 317 319 318 319 320 318 317 317 318 319 317 316 317 320 324 322 321 321 323
308 303 311 314 317 318 315 316 323 322 315 321 320 316 316 314 314 316 315 314 314 315 317 317 318 318 319 320 318 318 317 318 318 318 319 319 319 318 317 316 317 321 322 322 322
306 307 309 314 317 316 311 321 321 317 319 320 316 315 314 315 315 315 313 313 313 314 313 316 317 318 318 319 319 320 317 317 321 320 317 320 322 319 319 319 318 319 322 323 324
306 306 309 313 317 316 316 321 316 317 320 314 315 315 315 316 315 315 313 313 312 313 315 317 318 320 320 320 317 320 320 318 319 317 319 317 316 316 317 318 320 323 322 324 325
305 305 307 311 317 317 315 318 318 318 320 320 316 315 315 315 316 315 314 314 314 313 313 315 319 320 319 320 319 317 318 320 318 319 318 315 316 316 317 320 320 321 325 324 326
306 305 307 310 315 313 314 315 316 317 317 321 321 320 315 315 315 314 315 315 314 314 314 317 315 316 320 319 318 319 318 317 317 314 317 317 316 313 318 318 320 318 324 327 327
305 306 309 309 314 313 312 314 314 315 315 318 320 321 321 315 315 315 316 316 316 316 315 316 315 315 318 318 318 317 317 316 315 317 315 314 315 313 315 316 320 321 322 326 329
304 307 310 311 314 314 312 312 315 315 315 317 320 320 319 316 315 315 315 316 319 316 317 317 316 317 317 317 318 319 316 317 316 312 315 314 315 313 312 315 319 321 322 323 327
304 308 312 312 312 314 313 313 314 315 315 315 317 318 320 319 317 316 317 320 319 318 317 317 316 317 317 317 317 319 319 316 316 314 315 314 315 315 315 314 316 318 322 324 325
304 307 311 311 312 314 312 312 314 316 315 314 314 316 319 320 318 317 320 320 319 316 317 316 318 316 316 316 317 317 318 316 316 315 316 316 314 315 313 313 314 317 319 321 324
303 309 311 312 312 313 312 312 313 314 314 314 315 318 315 318 318 317 320 319 319 318 317 316 315 316 317 316 315 318 317 316 316 316 315 315 314 312 313 313 313 314 317 319 321
303 308 310 312 312 312 313 311 312 313 314 313 313 315 315 318 319 319 319 319 317 317 316 316 315 312 315 313 314 314 313 315 315 314 314 315 313 312 312 311 312 313 315 318 320

GFSSW_850_thetae_066.txt.gz
Theta_e
313 310 310 310 308 308 309 309 309 309 309 309 309 310 310 310 311 316 316 316 313 310 310 313 313 316 317 314 314 313 309 309 311 312 314 328 328 329 328 328 328 331 332 333 335
319 316 313 311 311 308 308 309 309 309 309 309 310 310 310 310 312 317 316 316 316 315 315 314 313 315 316 316 314 309 307 309 310 311 325 326 327 327 328 326 331 331 333 335 335
322 320 319 316 312 311 308 308 309 308 309 309 310 310 310 310 312 318 317 317 316 314 313 313 313 314 315 314 313 309 310 309 312 323 325 324 325 326 326 325 328 332 334 334 332
322 322 321 320 317 313 311 307 308 308 308 309 310 310 310 309 316 319 318 317 316 314 314 315 316 317 315 315 314 312 311 311 322 325 323 322 326 326 324 327 327 331 332 331 330
318 319 321 321 320 317 313 309 307 308 308 308 310 310 310 309 310 313 316 318 316 316 315 316 316 316 315 314 314 310 317 321 324 324 325 325 323 323 327 327 329 331 330 331 330
318 317 315 320 322 320 317 312 307 307 307 308 311 310 309 308 309 315 318 319 318 318 315 314 316 317 316 315 317 319 320 322 324 325 324 321 321 322 329 330 330 330 329 328 328
312 315 313 312 321 321 320 315 310 307 307 308 311 310 309 310 310 317 318 318 319 319 319 318 318 318 318 317 320 321 321 320 322 322 321 321 322 324 330 327 322 328 327 322 325
304 310 313 310 318 319 320 318 313 307 307 308 310 310 309 310 310 317 317 317 319 320 320 319 319 318 318 318 316 319 316 321 319 319 320 320 322 323 329 326 318 324 328 324 328
299 304 309 310 314 316 318 320 315 307 307 309 310 310 310 312 311 313 315 317 318 318 318 318 318 318 317 314 313 312 316 318 320 319 319 319 322 321 328 328 325 324 326 327 326
298 300 305 307 316 314 317 319 313 307 310 314 313 312 312 314 317 317 315 317 318 318 319 318 318 314 311 312 316 317 317 317 318 317 319 319 319 321 325 330 328 326 326 328 327
299 298 300 304 317 315 314 317 308 315 316 317 314 314 310 313 315 318 316 316 317 318 317 317 315 316 315 314 315 317 318 318 315 315 318 318 318 322 322 327 329 328 328 328 327
299 298 299 306 316 314 317 317 308 312 313 313 313 313 317 319 317 318 317 316 317 315 317 316 316 315 316 317 318 319 319 318 317 315 316 316 317 316 322 326 327 330 330 329 327
301 299 298 304 314 313 317 318 312 315 315 313 312 312 313 314 315 317 317 317 317 316 317 316 317 316 319 319 319 318 319 318 318 316 316 315 316 317 319 325 326 327 329 330 328
305 300 299 306 312 311 314 314 315 315 312 313 316 316 315 314 317 316 318 318 317 315 315 316 316 317 318 319 317 319 317 317 318 315 316 314 316 315 318 323 321 323 327 329 329
305 304 300 307 313 314 313 317 315 316 308 311 319 318 316 315 315 316 317 317 315 316 316 316 318 318 318 318 317 318 318 319 318 316 316 317 314 314 319 323 323 321 325 328 328
305 305 304 308 313 312 317 313 316 321 316 313 319 318 317 314 315 315 316 317 317 317 317 315 317 317 317 317 317 317 319 315 314 316 318 317 316 315 316 321 322 322 322 325 328
303 305 305 307 312 306 315 316 321 321 314 317 319 316 314 313 313 314 314 313 314 316 316 316 317 317 318 319 317 317 315 316 317 317 319 317 318 317 316 315 317 320 322 323 327
303 304 306 305 312 313 316 318 320 316 317 317 316 315 315 312 313 314 312 313 312 313 312 315 314 317 317 317 316 318 316 316 320 318 317 316 320 318 317 318 318 318 320 322 323
302 304 306 305 311 314 315 317 316 316 317 315 314 314 313 314 312 314 312 311 311 312 314 315 316 318 319 318 317 319 318 315 317 315 318 316 314 312 315 318 320 322 318 320 321
301 304 305 306 311 314 314 316 318 315 318 319 318 314 313 313 314 313 312 312 312 311 312 314 317 319 319 319 316 317 316 318 316 320 318 314 314 314 315 316 318 322 321 320 321
302 304 305 305 310 313 315 313 315 316 317 318 321 321 314 313 313 313 313 314 312 312 312 313 313 314 319 319 317 318 317 315 315 313 316 316 314 311 315 316 317 318 321 323 323
302 304 305 304 310 312 314 311 312 315 316 315 317 319 320 314 313 314 314 314 314 313 313 314 312 313 316 317 315 315 316 315 316 316 314 312 314 312 311 312 317 319 321 322 324
302 305 306 304 309 312 313 313 313 314 314 315 317 317 318 317 315 313 314 314 314 313 314 315 313 313 314 314 316 319 316 315 313 311 315 313 315 312 311 312 317 317 320 322 323
303 305 308 308 308 309 313 314 312 313 313 314 316 317 319 319 315 315 314 317 316 315 316 316 314 313 315 314 314 318 317 315 315 313 314 313 315 313 312 313 313 316 318 319 322
302 305 308 309 308 309 310 312 313 313 314 314 314 316 318 320 317 316 318 319 318 316 315 314 315 314 314 315 314 315 316 313 314 314 315 315 313 313 313 312 313 316 315 315 319
299 305 307 308 309 309 312 312 313 312 314 314 314 314 316 317 317 317 320 318 318 316 315 313 315 314 317 315 315 318 316 314 314 315 313 314 313 311 313 312 312 312 313 314 316
299 304 306 309 309 309 309 311 311 311 312 313 313 313 315 314 314 315 316 317 316 316 314 314 313 312 316 312 314 314 313 314 314 313 314 314 312 312 312 311 312 313 313 315 317

GFSSW_850_thetae_069.txt.gz
Theta_e
320 318 317 314 311 311 309 308 309 309 309 309 309 309 310 310 310 315 316 316 312 310 310 313 313 316 316 312 313 313 315 315 315 313 316 327 329 329 328 328 329 331 331 333 336
322 322 320 319 317 313 312 310 307 308 309 309 309 309 310 310 310 316 316 315 315 313 314 314 313 316 316 316 313 313 314 315 314 313 322 327 328 327 328 328 331 332 331 336 335
317 322 322 321 320 319 315 312 309 307 308 308 309 309 310 310 310 317 317 317 316 314 313 313 313 315 314 314 313 311 316 313 313 313 325 325 326 326 327 328 328 331 334 335 335
316 314 318 321 321 321 320 316 312 308 307 308 308 309 310 310 311 319 318 316 316 314 314 313 313 316 316 316 313 314 312 312 315 323 323 324 325 326 324 327 328 331 333 331 333
314 316 314 316 316 320 321 320 316 311 307 307 308 308 310 310 310 311 314 317 316 315 314 315 316 316 317 315 313 312 316 321 318 323 323 324 323 325 328 328 328 332 331 330 329
306 311 314 314 316 312 319 320 320 315 310 307 307 308 311 309 310 309 316 318 318 317 314 314 315 316 316 316 317 318 320 323 324 324 323 321 322 322 328 329 329 328 329 328 329
300 305 308 312 312 310 315 318 319 319 313 307 306 307 310 311 310 311 318 318 319 318 318 318 317 317 317 317 320 320 323 321 322 323 322 321 324 326 328 329 330 329 328 329 329
299 299 304 306 309 308 311 314 315 318 317 309 307 308 310 311 310 313 317 318 318 318 319 319 319 318 317 317 316 320 319 323 320 321 320 322 324 326 328 327 329 328 327 325 326
299 298 299 304 305 307 307 310 313 316 316 308 309 310 310 311 311 311 314 316 317 318 317 317 318 317 317 317 318 316 319 320 320 320 320 320 323 324 328 326 324 326 323 326 327
301 299 298 299 305 305 308 309 314 314 310 311 313 312 311 313 316 316 315 315 317 318 317 317 317 317 315 317 320 319 319 318 319 319 320 320 321 323 326 328 325 326 326 327 327
301 300 299 298 300 305 305 309 309 311 315 314 314 313 312 312 314 317 316 316 317 317 318 316 319 321 319 317 316 318 319 320 318 317 318 319 320 324 325 328 328 327 326 325 327
305 303 302 299 300 306 312 315 315 311 312 312 311 313 314 316 317 318 317 316 316 317 317 318 320 317 315 316 318 319 320 320 319 317 318 318 319 321 324 327 328 328 327 326 325
304 306 304 300 299 308 309 312 315 312 314 316 314 312 311 312 313 316 317 316 316 316 318 319 318 316 319 319 319 320 320 320 320 317 316 317 319 318 320 324 327 328 328 328 327
303 305 305 302 301 308 308 313 313 314 314 312 313 314 312 313 314 314 317 317 316 318 317 318 316 318 319 319 319 320 318 318 319 319 320 315 320 317 319 323 325 327 328 329 329
302 304 305 304 313 313 312 314 315 316 310 311 318 316 315 314 314 315 317 317 318 316 317 318 318 318 319 319 318 320 318 319 319 318 318 318 319 319 318 321 323 324 326 328 328
302 303 305 305 308 311 314 314 315 320 317 313 318 317 317 316 314 315 316 316 316 317 317 316 316 317 319 317 317 317 319 317 317 319 323 319 319 321 320 321 322 322 324 325 327
302 302 304 306 304 309 315 315 320 319 314 314 320 317 316 316 313 314 315 316 318 319 319 316 317 317 317 319 317 318 319 321 322 323 323 319 320 321 319 318 318 320 322 323 325
301 301 303 305 308 309 310 315 321 316 316 315 315 316 315 313 313 313 314 316 312 314 315 318 318 317 316 319 319 319 320 323 320 321 320 317 322 321 318 317 318 318 319 318 322
301 300 302 304 306 310 313 317 316 316 315 315 314 318 316 313 313 314 315 316 315 314 318 316 316 316 318 318 319 320 321 317 319 317 322 320 318 317 315 318 319 321 322 318 319
300 300 301 303 305 309 313 314 316 315 317 319 320 315 319 314 314 315 314 313 315 313 314 316 318 318 319 318 317 319 319 322 320 321 321 318 316 319 319 318 319 322 323 322 318
299 301 302 302 305 308 312 313 314 315 316 317 321 321 315 315 315 314 315 313 314 312 313 315 317 316 319 321 321 320 320 317 318 319 322 321 320 317 318 318 319 320 320 321 322
300 302 302 302 307 308 310 311 311 314 315 316 316 319 320 314 314 315 316 316 312 313 315 316 317 317 319 316 316 317 320 319 324 320 317 318 319 316 316 315 314 318 319 320 321
301 301 303 303 307 309 309 311 312 313 314 315 316 316 318 318 314 314 314 314 312 314 316 316 315 317 316 316 317 320 317 316 316 316 319 324 322 315 314 315 315 316 318 319 321
301 302 304 305 306 307 309 310 312 312 313 314 315 315 317 318 316 315 315 314 312 313 314 315 316 317 318 317 317 319 319 317 319 321 321 319 320 318 317 316 316 315 316 315 317
301 303 304 306 305 306 308 309 311 312 313 313 315 316 317 317 318 316 316 318 316 315 314 317 318 316 315 313 315 317 318 317 318 319 321 321 316 318 317 317 315 314 314 315 315
301 303 303 307 305 305 308 310 311 312 312 313 315 314 315 318 318 317 317 318 318 315 316 314 318 315 316 314 315 317 316 315 316 315 316 315 316 315 315 313 313 312 313 314 315
300 301 303 305 307 305 305 308 311 312 312 312 313 314 315 314 315 314 315 315 317 317 316 315 316 317 319 314 316 317 317 317 316 316 317 318 318 314 313 312 313 312 313 315 316

GFSSW_850_thetae_072.txt.gz
Theta_e
322 322 321 320 319 318 315 312 311 308 308 309 309 309 310 310 310 313 316 316 312 312 313 314 315 316 314 313 314 315 319 317 318 321 320 325 329 331 330 331 333 334 334 337 336
316 317 321 321 321 321 320 318 314 312 309 308 309 309 309 310 311 314 316 315 313 311 313 315 315 317 319 316 316 317 319 318 318 318 319 323 329 330 330 331 332 333 335 336 337
310 312 314 314 318 320 321 320 320 316 312 309 308 309 309 310 311 318 317 316 316 314 314 314 314 316 318 318 318 319 319 319 318 318 318 324 328 328 328 328 329 332 335 335 336
304 305 313 315 314 316 317 319 320 320 316 312 308 308 309 310 314 318 317 316 316 314 313 314 314 317 319 320 319 319 319 318 318 322 325 327 327 327 328 330 330 330 334 334 334
300 302 309 312 314 314 312 311 316 319 319 316 310 307 308 313 313 311 317 316 316 314 315 316 318 319 320 320 319 320 320 324 321 325 326 324 326 327 328 330 331 331 334 331 331
299 299 303 308 309 312 312 309 309 317 318 319 314 308 308 313 311 310 312 317 316 316 316 316 318 319 320 320 321 323 324 326 326 327 325 324 325 326 329 329 329 329 330 330 329
299 299 299 302 306 307 309 307 307 312 314 317 318 309 308 312 311 310 315 318 318 317 317 316 316 319 320 321 322 324 326 326 326 326 325 324 327 327 329 330 330 330 328 327 328
301 300 299 299 301 303 303 304 305 309 308 314 317 308 311 311 310 310 313 318 318 317 318 318 318 319 320 320 322 324 325 324 325 324 324 325 325 328 328 329 328 329 328 326 329
300 301 300 298 298 300 301 303 305 307 310 314 312 309 313 311 311 310 312 316 317 316 318 317 318 320 320 321 323 323 322 321 322 323 324 324 323 327 327 325 325 327 327 327 326
303 300 300 300 298 298 299 301 304 308 311 310 312 312 313 314 314 315 311 314 317 318 318 318 319 321 321 321 322 321 321 321 321 322 322 323 323 326 328 326 325 325 326 328 327
304 304 303 301 299 298 299 302 314 314 313 315 315 315 313 314 314 316 316 316 317 319 321 320 322 323 321 320 321 321 321 321 321 321 322 322 322 324 329 328 326 326 326 329 327
304 304 304 305 300 298 301 311 316 312 313 312 310 314 315 315 317 318 316 317 318 321 320 321 323 322 320 320 321 321 321 322 321 321 321 322 323 323 328 329 328 327 327 326 328
304 303 305 305 301 299 302 313 312 314 316 316 316 314 313 313 315 317 317 317 319 320 321 321 321 320 321 321 321 321 322 322 321 322 321 322 323 323 324 327 328 328 328 328 326
303 303 304 305 302 307 310 310 314 313 317 313 314 316 314 313 315 315 318 317 319 320 320 320 321 320 321 320 322 322 322 322 322 323 323 321 322 322 323 325 327 328 329 329 329
301 302 302 303 309 311 314 314 314 315 310 313 316 315 316 314 315 315 317 317 319 319 320 320 320 320 321 322 321 322 321 322 323 323 323 322 321 322 322 323 324 326 328 330 330
297 301 302 304 305 309 313 316 314 322 312 313 318 319 317 315 315 316 316 317 318 319 320 320 319 321 321 321 321 321 322 323 324 324 324 322 322 321 322 322 323 323 324 328 330
296 299 302 303 307 308 313 315 319 319 313 312 320 319 318 316 316 317 318 319 320 320 320 320 320 320 320 322 321 322 324 325 325 325 324 323 323 322 321 322 323 323 323 324 327
297 298 302 303 306 308 312 317 319 311 315 316 316 319 319 316 316 318 318 319 319 319 319 321 321 320 320 321 321 322 323 324 322 323 323 321 321 321 322 322 321 323 323 323 324
297 297 301 302 304 307 312 316 311 312 314 314 314 320 319 315 316 317 319 319 319 320 319 320 320 319 320 321 321 324 323 322 323 323 324 321 321 320 321 320 323 324 325 326 323
298 300 301 301 303 306 309 313 311 312 314 318 313 318 322 315 316 317 318 318 319 319 319 319 319 319 321 321 321 323 322 323 323 323 322 321 321 320 320 320 323 322 321 326 323
298 301 301 300 302 306 309 310 311 313 315 317 320 317 318 319 315 317 318 317 319 318 319 319 320 322 322 322 322 323 323 322 322 323 323 322 322 320 320 320 321 322 323 323 326
299 302 301 301 302 305 309 309 310 311 316 318 318 321 322 317 317 316 317 317 317 318 319 319 320 320 320 321 321 322 322 323 322 322 323 323 322 321 321 321 321 321 321 323 323
299 301 302 301 304 306 308 309 310 312 313 317 318 317 320 322 318 318 317 317 316 319 319 319 320 321 319 319 320 321 322 322 322 322 321 326 322 321 321 321 321 321 320 321 323
299 302 302 302 303 306 307 309 310 309 313 314 316 317 319 319 320 318 317 316 315 317 318 318 320 320 320 319 318 320 319 320 321 323 320 321 321 320 321 322 321 321 320 320 320
300 303 303 304 304 306 307 307 309 310 311 312 316 317 318 319 320 319 317 319 315 315 317 320 319 320 319 318 318 318 318 319 320 320 320 321 320 320 321 321 321 320 319 318 318
300 304 303 305 305 306 307 308 308 310 311 311 314 316 318 319 318 318 318 318 320 319 319 319 320 320 320 319 319 319 319 319 320 320 321 321 320 320 319 319 320 319 317 318 317
301 301 303 305 307 306 306 307 309 310 311 311 313 313 316 317 317 316 316 316 318 320 321 321 320 320 320 320 320 321 321 320 320 321 321 321 320 320 320 320 319 319 317 318 319

GFSSW_850_thetae_078.txt.gz
Theta_e
314 315 315 315 313 313 314 317 318 320 320 319 319 318 316 313 314 313 317 321 321 315 313 319 318 319 318 318 318 317 318 320 322 321 321 322 324 323 329 329 328 329 334 334 339
302 303 304 307 308 307 308 311 312 312 317 317 316 316 317 315 314 315 318 318 316 314 312 319 319 319 319 319 318 319 320 321 322 320 320 321 321 323 326 326 325 321 332 338 338
300 300 300 301 301 302 303 308 310 310 310 311 311 313 314 316 315 321 318 317 314 313 315 319 318 318 319 320 320 320 320 321 321 321 320 322 325 325 326 328 325 326 331 337 337
300 300 300 300 300 300 301 302 305 306 307 308 307 308 311 315 321 320 316 315 315 314 315 319 317 318 319 320 321 321 320 320 321 321 322 322 325 326 326 331 330 332 337 337 335
300 300 300 300 300 300 300 300 301 303 304 304 305 308 311 317 318 318 317 315 316 315 317 318 318 318 319 321 321 321 321 320 320 322 321 324 323 325 327 331 331 333 334 335 333
303 301 300 300 300 300 300 300 300 301 301 303 303 307 313 318 316 316 316 316 316 317 318 318 318 320 321 321 321 321 321 322 321 323 324 325 325 326 321 325 331 332 333 331 331
305 303 301 300 300 300 300 300 300 300 301 301 303 306 313 313 313 316 316 318 319 320 318 319 319 320 320 322 322 322 322 323 324 324 324 325 325 325 322 324 329 330 331 331 328
305 305 304 301 300 300 300 300 300 300 300 301 302 307 313 309 315 316 316 316 319 320 319 319 320 319 320 321 321 322 322 325 326 324 324 325 325 325 322 326 329 329 329 330 328
303 304 304 304 302 300 300 300 300 300 301 301 304 314 315 314 315 315 315 316 319 320 320 319 320 321 321 322 322 321 324 325 325 325 324 324 325 325 322 326 328 325 328 328 326
301 303 303 304 304 302 300 300 301 304 311 313 314 314 314 313 316 316 314 314 318 320 320 319 320 321 322 323 323 324 326 325 324 325 324 324 322 328 328 326 328 323 326 325 324
300 302 303 304 304 303 300 300 310 317 319 318 317 314 315 316 314 316 315 314 316 320 321 320 322 321 322 323 323 322 323 322 323 323 324 324 321 323 327 326 327 323 321 323 324
300 299 302 303 304 303 302 305 310 316 314 310 310 311 313 315 317 317 317 314 317 320 321 322 323 322 322 323 323 322 321 322 323 323 324 322 322 324 326 327 327 328 322 323 326
300 300 299 302 303 302 306 304 311 312 315 312 311 311 311 312 314 317 317 315 318 319 321 323 322 323 322 323 322 321 322 323 324 323 324 324 322 323 325 326 328 327 328 324 325
298 301 300 299 302 308 311 311 313 316 316 310 312 315 312 313 313 313 318 317 317 319 319 321 322 322 323 323 322 323 323 324 323 323 324 325 325 324 324 326 327 329 327 328 326
299 299 301 298 303 307 312 316 315 318 310 313 316 317 317 315 315 315 314 318 319 319 320 321 321 322 322 322 322 323 323 324 323 324 324 325 326 323 324 324 326 328 329 327 327
301 298 301 299 300 301 306 311 314 318 311 313 318 317 318 317 315 316 314 317 318 319 320 320 320 321 321 322 322 322 323 324 323 325 326 325 325 324 324 324 324 326 328 328 328
301 300 301 301 303 305 307 309 315 312 309 310 317 318 317 318 317 317 317 317 320 318 320 320 320 321 321 322 323 323 324 326 329 329 329 325 325 326 324 324 323 323 325 328 329
298 300 301 302 301 302 304 311 313 308 309 315 316 318 319 319 319 317 318 317 319 319 319 321 321 321 321 322 323 323 324 328 330 331 330 327 326 322 324 323 322 321 322 325 327
299 300 301 302 302 303 305 309 311 309 309 310 315 318 321 320 319 318 318 318 318 318 319 321 321 320 321 322 322 324 324 324 327 326 331 328 325 325 323 322 321 321 322 322 323
301 301 302 302 303 303 306 307 308 310 310 311 312 317 321 322 321 318 318 318 318 319 319 321 323 322 321 321 322 323 324 326 326 328 327 323 324 325 324 322 322 322 323 324 326
301 302 302 303 302 304 306 307 307 307 309 311 311 313 314 315 321 319 318 318 318 318 320 321 323 323 322 322 322 322 323 326 325 325 328 330 325 324 323 322 323 322 322 322 322
301 302 302 303 304 304 306 307 306 307 308 311 312 313 314 317 321 321 318 318 318 319 320 321 322 323 322 322 321 322 323 324 327 325 328 330 328 324 323 323 322 322 321 321 322
301 301 302 303 305 305 305 306 306 307 307 310 312 313 315 318 319 321 320 318 317 317 320 321 321 323 322 322 322 322 322 323 324 324 326 329 325 324 323 322 322 322 321 321 321
300 302 304 304 304 306 305 305 306 305 307 308 312 312 312 320 321 320 320 318 319 318 317 319 322 323 325 323 322 322 321 322 325 327 327 326 325 322 322 322 322 322 322 322 320
300 303 304 305 305 306 306 305 306 306 306 307 310 312 311 317 320 319 319 319 319 319 318 321 322 323 321 321 321 321 322 321 321 322 323 324 322 322 322 321 321 321 322 322 322
299 303 304 305 304 306 307 308 306 306 306 307 310 311 313 316 316 316 317 319 319 320 322 320 322 322 323 320 321 321 321 321 320 320 319 321 321 321 320 320 321 321 320 320 321
300 302 304 305 306 307 307 307 307 307 307 307 308 311 313 313 315 317 317 318 319 319 318 322 323 323 324 322 320 320 321 320 319 320 320 320 322 321 321 321 321 320 320 320 319

GFSSW_850_thetae_081.txt.gz
Theta_e
300 301 301 301 302 303 304 305 304 307 310 310 310 313 313 312 313 314 314 314 320 321 315 315 318 317 318 318 318 318 311 312 314 318 318 322 323 324 328 328 326 328 324 324 334
300 300 300 300 300 300 301 301 301 303 306 307 307 307 307 308 310 315 319 317 317 318 314 314 319 318 319 319 319 314 311 314 317 318 318 320 324 322 327 327 325 325 323 330 333
300 300 300 300 300 300 300 300 301 301 302 303 304 305 305 305 310 321 319 317 317 314 313 316 318 319 318 317 318 318 314 316 318 319 321 320 324 328 328 330 330 327 331 334 334
301 300 300 300 300 300 300 300 301 301 301 302 303 303 303 305 316 319 318 316 315 314 313 316 319 318 316 314 318 317 318 318 320 319 321 320 324 326 330 330 332 334 334 334 333
303 301 300 300 300 300 300 300 301 300 300 301 301 303 303 308 312 310 317 316 316 315 314 315 318 318 315 316 318 319 318 321 322 323 324 323 323 325 323 324 331 331 331 333 332
303 303 302 301 300 300 300 300 301 300 300 300 301 302 307 314 311 318 317 316 315 316 316 316 318 318 318 319 317 319 320 319 322 323 322 324 324 324 322 326 331 331 330 329 329
303 303 303 302 301 301 300 300 301 301 300 300 300 302 306 304 308 315 317 316 317 317 318 317 318 318 319 318 320 320 319 318 322 322 322 323 324 323 322 322 329 331 330 328 328
300 302 303 303 302 301 301 301 301 301 300 300 299 304 306 305 308 308 315 315 316 319 319 319 318 320 319 320 320 319 318 318 322 322 323 322 323 324 322 326 329 329 330 327 326
300 300 301 303 303 301 301 301 301 300 301 300 303 307 313 314 314 314 314 316 316 317 319 320 319 320 320 319 318 319 318 320 324 323 323 322 324 323 324 324 326 329 329 326 324
300 300 300 301 301 302 301 300 301 301 301 312 315 314 313 314 315 315 315 315 316 317 319 320 319 317 316 317 320 320 322 325 325 323 323 322 322 322 323 325 327 329 326 325 323
297 300 300 299 300 301 301 301 309 314 317 318 316 310 310 314 316 315 316 314 315 314 319 320 317 318 317 318 320 321 322 322 322 323 322 321 320 325 324 326 325 326 325 323 324
297 297 300 300 299 299 302 302 307 309 309 314 314 317 318 316 316 316 317 314 314 313 317 319 320 319 320 319 320 322 320 319 320 322 321 320 319 321 325 324 322 321 321 323 323
296 297 297 300 300 305 307 309 310 312 311 312 311 310 308 307 309 310 314 316 313 313 315 320 320 321 321 321 321 321 320 320 320 321 320 322 320 321 323 324 321 321 323 323 321
295 297 298 299 300 306 309 311 312 314 314 311 311 310 310 311 311 309 309 316 314 314 315 317 320 321 321 322 321 321 320 321 323 321 320 322 321 321 323 326 324 321 323 325 324
293 300 300 299 300 299 304 311 315 315 312 310 310 314 314 311 313 313 312 313 316 314 315 317 318 320 321 321 321 321 322 323 323 321 321 322 323 321 321 324 327 325 322 324 325
295 295 301 299 299 301 305 306 313 315 314 311 316 317 316 311 313 314 313 312 316 315 315 316 318 318 319 320 320 321 322 322 323 321 322 322 325 321 320 324 324 326 326 323 326
299 296 301 300 298 303 303 305 313 314 308 307 313 317 317 316 313 315 314 312 313 317 318 318 318 318 319 320 320 320 320 322 325 325 324 327 327 323 322 321 322 327 326 326 325
300 299 299 300 298 301 302 308 314 311 309 309 310 314 317 316 317 316 315 314 313 316 317 318 318 317 319 320 320 319 320 323 327 326 330 328 328 323 322 322 322 323 327 326 326
300 300 299 300 299 301 303 306 306 308 309 308 308 308 309 317 318 316 315 315 314 315 317 317 317 319 318 320 320 322 322 321 326 328 329 327 324 323 322 320 319 320 321 326 327
300 301 301 299 301 302 304 303 305 306 307 308 309 309 310 316 319 317 316 316 316 315 317 319 320 319 319 319 320 320 322 324 323 329 329 327 325 324 321 321 320 319 322 325 326
301 302 302 301 301 303 302 303 304 304 305 307 308 309 311 312 313 321 321 317 315 316 316 317 318 319 320 320 321 321 321 324 324 323 322 322 322 321 321 321 321 319 321 322 323
300 301 302 301 303 303 303 302 303 304 305 306 306 307 309 311 312 312 320 318 317 316 317 317 320 319 318 319 320 320 320 321 324 325 324 322 321 321 320 318 319 319 321 321 321
300 300 302 302 304 304 303 304 304 304 305 306 306 307 308 310 313 314 318 319 316 317 317 317 319 320 320 319 320 320 320 321 321 321 323 322 323 321 320 320 320 321 321 320 321
299 300 302 303 303 304 304 304 304 304 305 306 307 306 307 308 312 313 316 319 317 318 317 316 318 318 320 320 321 321 320 320 320 320 321 321 323 321 320 319 318 320 321 321 321
299 300 303 303 304 303 304 304 305 305 305 305 305 306 307 309 312 314 317 314 318 318 319 318 320 318 320 319 319 321 321 320 320 321 324 323 323 321 318 318 319 321 321 321 321
299 301 302 303 304 305 304 306 306 306 305 305 305 305 307 309 311 314 315 313 317 318 320 318 319 319 319 319 320 320 320 319 320 320 318 318 319 317 319 319 319 320 321 321 321
300 300 303 304 304 304 305 303 306 306 305 306 305 305 305 307 309 313 316 315 316 319 316 319 318 321 320 319 320 318 319 319 320 319 318 317 317 317 318 319 319 320 319 320 319

GFSSW_850_thetae_084.txt.gz
Theta_e
300 300 300 300 300 300 301 301 301 301 302 303 303 304 305 306 309 310 312 316 314 321 319 313 315 317 317 318 318 318 311 311 312 313 316 319 322 326 327 326 326 328 323 322 322
301 301 300 300 300 300 301 301 301 301 301 302 302 303 303 304 306 311 319 318 316 317 318 313 316 318 318 318 318 314 309 312 313 313 316 319 324 324 327 326 325 326 327 324 330
301 301 301 301 300 300 300 301 301 301 301 301 301 302 303 303 305 316 317 317 317 317 315 313 316 317 317 317 316 314 313 315 315 316 318 319 326 328 327 329 331 331 330 327 333
301 301 301 301 301 301 301 301 301 301 300 300 300 301 302 303 307 320 317 316 316 315 313 312 316 318 315 314 316 316 316 316 316 321 322 318 326 327 329 330 333 333 334 335 334
300 300 300 300 300 301 301 301 301 301 300 300 300 300 301 305 307 309 311 314 316 315 315 313 314 318 315 314 315 316 316 319 320 322 323 323 324 324 328 331 332 330 330 332 333
300 300 300 299 299 299 301 301 301 301 300 300 299 299 301 311 309 315 316 316 316 315 315 315 314 318 317 316 317 318 319 319 319 320 322 323 323 323 322 329 331 329 328 327 329
300 300 300 299 299 299 299 300 301 301 300 300 299 299 300 304 306 306 314 317 316 316 316 315 315 316 317 316 318 319 317 316 317 320 321 322 322 322 322 327 331 329 328 328 327
300 300 300 300 300 300 300 300 301 301 300 300 299 301 303 305 305 307 307 309 316 316 317 315 318 319 318 319 319 318 317 317 317 321 322 321 319 321 322 323 330 329 328 326 325
298 298 299 299 300 300 300 300 300 300 301 300 300 306 306 308 312 314 314 310 314 316 316 318 319 319 319 318 316 317 318 318 319 320 321 321 320 320 322 325 328 329 327 325 324
298 297 297 298 299 300 299 300 301 301 301 301 312 313 309 309 313 316 314 314 314 315 316 316 318 315 314 315 319 318 319 321 321 321 321 321 320 320 322 324 326 328 326 325 323
296 296 296 296 297 299 301 301 308 313 311 315 315 312 310 311 312 315 315 315 314 314 316 318 317 318 315 315 317 318 319 319 319 320 322 321 320 320 321 326 327 327 324 323 322
294 295 296 296 296 299 306 307 306 306 308 309 308 310 313 311 318 314 316 314 314 313 314 317 318 318 316 316 317 318 319 319 318 318 320 321 318 318 322 325 326 325 323 322 322
294 294 298 295 296 301 305 307 308 308 310 311 308 309 309 310 314 314 313 314 313 313 313 315 319 318 318 318 319 319 319 319 318 318 319 319 318 321 322 324 324 323 321 322 322
294 294 295 297 297 300 303 309 309 310 312 311 312 309 309 309 309 307 307 309 314 314 312 312 314 318 319 319 319 320 319 319 320 320 319 319 320 318 321 323 322 320 320 321 321
294 294 294 300 297 297 301 302 308 313 301 305 309 309 310 309 310 310 309 307 313 313 312 314 316 317 319 319 320 320 320 320 322 321 319 319 321 319 322 325 322 320 321 321 321
294 296 296 298 298 297 303 302 311 312 308 309 312 311 310 310 311 313 309 311 311 314 313 312 314 315 318 319 319 320 320 320 320 319 322 324 324 321 319 323 324 321 322 322 321
295 298 300 297 298 299 302 304 311 311 308 306 310 314 314 310 310 311 311 309 311 314 315 314 313 314 316 317 317 318 318 320 322 323 322 326 326 323 321 319 324 324 321 324 323
298 299 299 297 298 299 301 304 310 310 307 308 308 308 307 306 313 311 311 311 309 311 314 316 317 315 316 316 318 318 318 320 324 324 326 326 324 323 320 319 321 325 325 322 324
299 299 300 299 298 300 301 302 301 305 308 308 307 308 307 310 311 313 313 312 311 310 315 316 316 316 316 317 317 318 319 319 324 326 325 325 324 321 319 319 319 322 325 324 323
300 300 299 299 298 300 301 300 301 302 303 304 305 308 309 309 310 313 314 315 314 312 312 316 317 316 316 316 316 319 319 321 322 327 328 325 325 324 320 320 319 317 324 325 325
300 301 301 300 299 301 300 299 301 300 301 304 304 305 306 307 309 311 313 313 313 315 312 313 316 317 317 317 316 319 320 322 322 323 325 322 320 317 319 320 318 317 320 324 325
300 302 302 302 301 301 302 301 301 302 302 303 304 303 304 304 306 308 310 312 312 314 315 313 315 316 317 317 317 317 319 321 323 324 322 320 320 319 317 317 317 316 320 323 325
301 300 301 301 302 302 302 303 302 302 302 304 305 306 306 307 307 306 311 312 314 315 315 314 315 318 318 317 317 318 318 319 322 321 324 322 321 319 318 319 320 318 319 320 322
299 300 301 302 302 302 302 303 304 303 304 303 303 304 305 306 307 308 310 313 314 313 315 315 316 316 318 317 318 320 320 319 321 321 321 321 320 319 319 318 318 320 320 320 321
299 299 302 302 303 302 302 303 304 304 303 304 305 304 304 306 306 307 309 315 313 313 316 317 316 317 317 317 318 318 319 319 320 320 320 319 320 319 319 318 318 320 319 320 321
299 301 301 301 302 304 303 303 303 304 303 304 304 304 304 304 305 306 309 315 314 313 314 316 317 317 317 317 319 320 319 318 319 318 319 320 319 319 320 319 317 319 320 320 321
300 300 302 302 302 302 303 303 304 304 304 304 304 304 305 304 304 305 307 314 315 315 313 316 317 316 316 318 319 319 318 319 319 319 318 318 317 316 315 314 315 318 319 320 321

GFSSW_850_thetae_087.txt.gz
Theta_e
301 301 301 301 301 301 301 301 301 301 301 301 301 302 303 304 307 309 311 317 316 314 317 315 314 316 314 316 317 315 311 311 312 312 313 315 320 325 326 325 325 327 325 322 322
302 301 301 301 301 301 301 301 301 301 301 301 301 302 302 303 305 309 313 318 315 319 319 316 313 318 317 318 317 311 309 312 311 312 313 315 320 325 326 326 326 326 327 324 324
300 300 300 300 301 301 301 301 301 301 301 301 300 301 302 302 305 313 317 317 317 317 317 314 312 317 317 316 315 312 313 313 315 316 315 313 324 325 325 326 329 329 331 329 327
300 299 299 299 300 300 301 301 301 301 301 301 300 300 302 302 305 318 318 315 317 316 315 313 312 316 314 314 314 314 314 314 316 319 320 318 324 326 326 327 331 331 329 328 332
300 300 299 299 299 299 300 300 301 301 301 300 300 300 300 302 304 307 308 315 312 316 315 313 312 317 315 314 314 313 314 317 318 319 320 322 323 323 328 331 331 329 329 332 330
300 300 300 300 300 300 300 300 300 300 300 300 300 300 299 306 308 307 313 313 309 316 315 314 313 314 317 316 315 316 316 317 318 318 319 320 321 324 325 329 331 329 328 329 330
298 298 299 299 299 300 300 300 300 300 300 300 300 299 299 302 306 305 305 306 316 316 315 315 315 315 316 316 318 318 316 315 316 317 318 321 320 320 321 326 331 329 328 327 329
299 297 297 297 298 299 299 300 300 300 300 300 300 300 301 304 304 307 306 306 310 316 316 316 316 316 316 318 317 317 316 316 316 318 320 320 319 318 323 330 331 329 328 326 329
297 297 296 296 296 297 298 300 300 301 301 300 300 300 301 304 307 312 315 314 311 308 316 315 317 318 318 316 315 315 316 317 317 317 318 319 319 317 322 327 330 329 327 325 325
294 294 296 296 296 296 298 300 303 306 302 301 307 305 302 304 308 313 315 315 314 312 314 315 316 315 312 314 317 316 317 318 318 318 320 319 319 318 321 326 328 328 325 324 323
294 294 295 296 296 296 300 302 305 306 307 310 311 310 306 310 310 313 314 315 313 314 313 315 314 317 316 314 316 317 317 317 317 317 320 319 318 318 319 321 325 326 324 323 322
295 294 295 295 296 296 303 307 305 305 306 306 306 308 311 311 311 311 312 315 313 312 312 315 317 317 315 314 315 316 317 317 316 317 317 317 318 316 319 322 324 325 325 323 321
294 294 295 295 295 296 298 305 304 305 308 309 307 308 307 308 309 309 309 313 311 312 311 313 315 316 317 316 317 316 317 317 317 317 316 318 317 317 320 323 325 325 325 321 320
294 294 294 295 296 297 299 305 303 306 309 309 312 308 308 309 310 308 311 313 312 312 311 311 313 314 318 318 317 318 317 318 318 318 320 317 319 316 318 323 324 323 324 321 320
294 294 294 294 295 296 296 298 303 310 302 305 309 309 310 307 308 310 309 312 310 313 311 312 312 313 314 318 317 319 318 318 318 319 318 319 319 317 322 323 322 320 322 322 320
294 294 296 295 294 296 296 298 308 311 305 306 309 310 310 309 310 310 308 308 308 309 312 312 313 312 313 315 317 318 318 318 318 318 320 322 321 319 317 322 323 321 320 321 320
297 295 297 297 296 297 298 301 311 310 308 306 308 308 308 309 309 309 308 308 308 308 308 312 313 313 315 315 315 316 317 318 319 320 321 322 325 322 319 318 321 321 321 320 320
297 297 298 298 298 297 299 301 308 306 307 307 306 307 307 308 310 311 310 307 307 310 311 308 311 314 312 313 315 314 316 319 322 321 321 324 325 322 319 320 319 321 322 321 321
297 298 298 297 299 298 300 299 302 304 306 303 304 307 308 308 309 310 312 312 309 308 312 314 314 314 313 314 314 315 317 317 319 324 324 322 322 320 319 318 317 321 322 321 322
298 298 299 298 299 299 300 298 298 301 300 302 302 305 307 305 306 309 312 313 311 311 310 312 315 315 315 314 314 316 317 319 319 325 327 323 323 322 320 319 317 318 322 322 322
299 299 299 299 299 300 300 298 299 299 300 301 303 301 302 303 307 308 312 311 311 312 312 314 311 314 316 314 315 316 317 319 319 319 321 322 320 317 320 318 318 315 321 323 323
299 300 299 299 300 299 300 299 299 300 301 303 303 302 303 303 303 304 307 310 310 312 313 315 312 312 313 314 315 315 317 318 321 322 320 318 319 316 316 315 316 318 319 319 324
299 299 300 300 300 300 300 300 300 300 300 302 304 305 304 305 305 306 305 306 308 314 315 313 316 313 315 314 314 315 316 317 319 318 321 321 320 317 317 316 319 318 319 320 321
299 300 299 300 301 300 300 301 302 302 302 302 302 302 303 303 304 305 306 307 308 313 312 311 317 318 315 315 314 317 317 317 320 319 319 321 320 319 318 317 317 319 320 319 319
299 299 300 301 301 302 301 302 302 303 303 303 303 303 303 304 304 304 305 305 308 313 312 312 316 317 315 314 315 318 318 318 318 318 320 319 320 319 317 317 317 321 321 320 319
299 299 300 301 302 302 302 302 303 303 302 303 303 303 304 304 303 303 304 304 311 313 312 312 316 316 316 315 315 316 316 319 319 318 317 317 318 316 317 318 317 319 319 318 320
299 299 300 301 301 302 303 302 303 302 302 303 303 303 303 303 303 303 303 304 307 311 313 311 314 316 317 316 317 318 317 317 318 318 317 317 317 317 316 315 316 318 318 319 318

GFSSW_850_thetae_090.txt.gz
Theta_e
300 300 301 301 301 301 301 301 301 301 301 301 302 302 303 304 305 307 309 309 315 315 315 315 314 313 313 313 316 314 310 310 312 311 313 313 317 322 325 326 324 326 326 325 323
299 300 300 300 300 300 301 301 301 301 301 301 301 302 303 303 305 308 314 311 316 314 315 318 313 317 317 317 316 311 309 311 310 310 312 314 314 321 325 325 325 325 326 326 325
299 299 299 300 300 300 300 300 300 301 301 301 301 302 302 303 304 309 317 317 316 318 318 316 313 317 316 316 315 311 312 311 314 314 314 312 316 322 324 325 325 327 327 330 326
300 300 300 300 300 300 300 300 300 300 300 301 301 301 301 302 304 315 317 317 317 317 316 315 312 315 314 313 314 312 312 313 315 317 317 316 319 325 324 325 327 329 330 329 327
300 300 300 300 300 300 300 300 300 300 300 300 300 301 301 301 303 307 306 311 314 315 315 314 311 315 315 313 313 311 312 315 317 317 317 318 322 323 324 326 330 329 328 329 330
299 298 298 298 298 298 299 299 300 300 300 300 300 300 301 300 307 307 305 312 313 310 312 313 312 313 315 314 313 315 315 315 317 316 316 319 319 322 323 327 330 329 329 329 327
301 298 297 297 297 297 298 299 299 300 300 300 300 299 301 302 305 305 307 305 305 314 313 314 313 316 315 315 316 316 315 313 314 315 315 317 318 320 321 328 329 329 328 329 327
297 296 296 296 296 297 297 299 299 300 301 301 300 300 302 303 303 304 305 305 305 309 315 315 315 315 314 315 316 316 314 315 314 315 317 319 318 316 319 325 330 330 328 325 325
295 294 295 295 296 297 297 298 300 305 305 301 300 300 301 302 304 309 315 314 314 309 307 315 314 315 316 315 315 313 315 315 315 316 317 319 319 317 319 326 329 330 326 324 324
294 295 295 295 296 296 297 298 301 308 307 301 305 302 301 303 306 312 314 315 314 312 307 312 315 314 312 314 317 315 316 315 316 317 316 318 317 317 319 322 327 329 326 323 322
294 295 295 295 296 296 296 299 302 305 303 306 309 308 304 307 309 312 315 313 313 312 311 313 312 314 315 314 314 315 315 316 314 315 317 315 314 314 316 318 321 326 326 323 322
294 295 295 296 296 295 297 305 302 301 304 304 304 305 306 306 308 308 311 315 312 311 312 314 314 313 314 313 315 315 316 316 314 314 315 315 315 315 315 318 319 322 325 324 322
294 294 295 295 296 295 296 303 303 302 304 306 307 307 307 306 307 307 306 312 311 311 311 313 314 314 315 314 315 315 316 315 315 314 315 315 315 316 316 320 322 323 324 324 322
295 294 294 295 295 297 297 301 299 303 309 307 311 309 308 308 308 306 307 307 311 312 311 311 312 313 315 317 316 317 315 316 316 317 317 315 317 315 316 319 322 323 324 324 322
297 295 294 294 295 295 296 296 299 308 303 304 308 309 309 308 307 309 309 309 309 312 312 312 312 312 313 316 315 317 316 316 317 316 316 317 317 316 320 320 319 320 323 324 323
297 295 294 295 295 295 295 296 305 309 308 305 308 309 307 309 308 309 309 310 310 310 309 311 312 311 312 313 315 317 317 317 317 316 318 317 317 317 316 319 319 319 321 323 324
296 297 297 296 296 296 297 297 307 308 306 306 306 306 306 307 309 310 307 308 305 305 307 307 309 312 313 313 314 315 316 318 318 319 321 317 323 320 317 316 317 318 321 322 323
296 296 297 297 296 297 297 298 305 305 306 304 302 305 307 304 307 309 311 307 307 309 307 305 305 309 312 314 315 315 316 317 321 319 319 322 325 321 318 318 319 320 319 321 321
295 296 297 296 297 298 299 295 300 303 302 300 300 304 306 305 303 306 309 313 311 310 310 312 307 311 312 313 313 313 315 315 316 320 322 320 320 318 318 318 316 316 319 321 321
296 297 297 296 298 299 298 297 296 299 298 299 299 301 303 300 299 302 306 311 311 311 311 313 313 312 313 312 312 313 313 317 317 322 324 320 322 319 318 318 316 316 319 321 321
296 298 298 298 298 299 298 296 297 298 300 299 302 299 300 301 302 304 307 308 310 311 313 313 313 312 312 313 313 313 315 317 317 317 319 320 319 316 318 317 317 314 317 321 321
296 299 298 298 299 299 298 298 298 298 300 302 301 300 300 301 302 302 304 305 303 304 309 312 314 313 313 312 312 313 314 315 317 318 317 316 318 315 315 315 315 315 318 319 322
297 297 298 299 299 299 298 298 299 299 299 301 303 303 302 304 304 304 303 304 308 310 312 311 314 316 314 313 312 312 312 315 317 317 318 319 318 316 314 315 317 316 318 319 320
297 298 298 299 299 298 299 298 299 300 299 299 301 301 301 302 302 304 304 304 304 303 309 310 312 313 317 317 317 316 313 313 317 317 318 319 318 318 317 317 316 318 319 320 320
297 298 299 298 299 299 299 300 299 299 301 302 301 300 301 302 303 303 303 303 303 304 310 311 311 311 313 314 313 316 315 314 315 316 318 317 318 317 316 316 317 319 320 319 319
297 298 297 298 300 300 299 300 300 300 300 303 303 303 303 302 303 303 303 303 303 310 311 311 308 313 312 313 316 316 315 314 316 315 316 316 316 315 317 317 317 318 319 320 319
297 298 298 299 298 300 300 300 301 301 302 301 302 303 303 302 303 303 303 303 303 303 304 308 311 314 315 314 314 315 313 314 313 316 316 316 315 315 315 314 315 318 320 320 320

GFSSW_850_thetae_096.txt.gz
Theta_e
301 301 301 302 302 302 303 303 302 302 302 302 302 303 303 303 305 306 309 310 309 310 311 315 314 313 314 314 315 316 319 319 319 318 318 319 320 320 322 323 325 326 326 328 329
300 300 300 300 300 301 301 302 302 303 303 303 303 303 302 302 304 307 312 315 313 310 312 315 314 313 314 314 315 317 319 319 319 318 319 319 320 320 322 323 325 325 327 329 330
300 299 299 299 299 298 299 299 299 300 301 302 303 303 302 302 304 310 315 315 315 315 314 315 315 314 315 317 317 317 319 319 318 318 318 319 319 320 322 323 322 322 322 327 332
301 299 299 298 298 298 298 298 298 299 299 300 300 301 302 302 307 311 315 315 316 314 314 315 317 317 318 318 317 318 318 318 318 318 318 319 319 320 321 322 321 325 326 330 332
301 300 298 298 297 298 298 298 298 299 299 299 300 301 301 306 307 305 305 305 306 317 316 316 317 317 317 317 318 319 318 317 317 317 317 318 319 320 320 320 321 325 331 331 331
300 298 297 296 297 297 298 298 298 298 299 299 300 301 303 305 306 305 304 305 308 310 314 316 316 315 315 316 317 317 317 317 317 317 318 319 319 319 320 320 323 328 330 332 332
298 297 296 296 296 297 297 298 298 299 299 299 300 303 304 304 304 305 304 304 307 308 308 310 312 314 315 316 316 317 318 318 318 318 319 318 320 319 319 323 326 329 331 331 331
297 296 295 296 296 297 297 298 298 298 299 300 302 303 307 302 302 303 302 303 303 303 303 305 311 313 315 316 317 318 319 320 320 319 318 320 320 323 322 324 323 326 330 330 330
298 296 295 295 296 296 297 298 298 299 300 303 305 304 306 302 304 306 309 310 312 313 304 309 313 314 315 317 318 318 319 320 320 319 319 321 322 324 323 323 323 324 328 330 330
300 298 295 295 296 296 297 297 298 300 304 304 305 306 305 305 307 308 312 314 314 311 307 307 313 317 318 318 320 320 320 320 319 320 320 321 322 323 322 321 322 324 327 329 329
300 299 296 295 295 296 297 299 303 306 302 302 303 306 304 306 307 308 314 314 313 312 312 307 314 317 317 318 319 319 319 319 319 320 320 320 319 320 322 322 323 323 327 329 329
300 299 298 295 295 296 296 302 300 299 303 302 303 304 305 305 305 306 308 313 314 314 314 313 312 313 316 317 318 318 318 318 319 319 319 320 319 320 322 323 323 323 325 327 328
300 298 298 295 295 295 297 299 296 298 304 305 306 308 309 307 308 308 306 309 314 314 314 315 315 314 313 316 317 317 317 318 318 319 319 320 320 319 320 322 323 324 324 325 327
299 298 298 296 296 295 300 296 295 301 309 307 309 310 310 309 310 308 307 307 310 313 314 314 314 314 315 314 315 316 316 317 317 318 320 319 319 318 321 322 323 322 325 326 327
298 298 298 297 295 299 296 295 296 306 302 307 310 310 308 310 309 310 309 307 308 307 313 315 315 315 315 316 316 316 316 316 318 319 320 320 320 319 321 323 323 323 322 326 327
297 297 296 298 296 296 295 295 303 310 302 306 308 307 309 309 310 311 310 308 309 308 308 310 311 312 315 315 316 317 318 319 320 321 323 321 320 320 321 324 322 323 324 326 327
296 296 296 297 299 295 295 299 306 303 302 306 306 306 308 307 310 307 312 312 310 312 310 307 309 311 313 314 314 316 319 322 324 323 323 320 321 320 323 323 323 323 323 325 327
296 297 297 297 297 296 298 300 304 301 303 304 304 305 308 305 305 304 313 311 311 311 310 310 309 310 313 313 315 316 319 320 320 323 323 321 323 323 323 323 322 323 324 325 326
298 297 296 298 295 296 299 299 299 301 301 301 301 301 303 305 303 304 304 313 311 310 313 314 313 313 311 312 313 316 318 317 318 319 321 323 323 323 323 323 323 323 322 323 325
297 297 297 297 295 299 299 298 298 299 300 301 300 301 301 302 303 303 303 309 312 306 308 310 315 314 313 313 313 314 316 318 319 320 320 319 321 323 321 322 323 323 323 323 324
297 298 298 296 296 299 299 297 298 297 298 299 300 301 301 301 301 300 301 303 306 306 305 311 312 315 315 315 313 312 315 316 317 319 321 321 321 321 321 321 322 323 323 323 324
297 298 297 297 299 299 300 298 297 298 298 298 299 301 300 300 300 299 300 301 302 303 304 308 311 313 315 316 316 317 316 315 317 317 319 320 321 321 322 322 323 323 323 322 324
297 297 297 298 300 300 299 299 298 299 299 298 298 299 300 300 299 300 301 303 304 308 308 306 311 313 315 316 316 317 317 317 318 318 319 322 321 320 320 320 321 322 322 323 321
296 299 297 298 299 300 299 299 299 299 299 299 299 300 301 302 303 302 304 305 306 305 305 305 308 308 311 313 312 314 315 315 316 320 319 319 318 318 318 319 320 320 321 322 322
295 298 297 299 298 300 299 300 299 299 299 300 300 300 300 300 300 302 303 304 304 304 307 307 308 308 309 308 308 309 310 311 315 316 318 319 320 318 318 318 319 320 321 322 322
296 297 297 297 298 299 299 300 300 299 300 300 301 301 302 303 302 303 305 305 305 306 308 307 309 310 311 311 310 310 310 311 312 314 316 317 318 318 318 317 318 319 319 320 321
295 297 297 297 298 299 299 299 299 300 300 300 301 301 302 303 303 303 304 304 305 306 306 307 308 310 311 312 313 314 313 312 312 314 317 320 319 319 318 318 319 320 321 321 321

GFSSW_850_thetae_099.txt.gz
Theta_e
300 300 300 300 300 300 300 300 301 301 303 305 306 305 305 305 305 305 311 313 313 311 309 317 318 316 316 317 318 318 319 321 323 323 322 321 321 321 321 322 322 323 325 325 330
300 300 299 299 299 299 299 299 299 300 300 301 302 304 303 304 308 309 312 312 313 314 308 317 319 317 317 317 318 319 320 321 323 322 321 320 321 321 321 321 322 323 323 325 331
302 300 299 299 298 298 298 298 299 299 300 300 301 301 301 302 311 315 312 316 314 311 314 317 318 317 317 317 318 319 320 321 322 321 319 320 320 320 321 322 322 323 323 324 328
301 301 299 299 298 297 298 298 299 299 299 299 300 301 301 302 314 315 310 314 309 314 317 317 317 318 318 319 319 320 319 320 320 320 319 320 320 320 320 321 320 321 322 326 328
301 299 298 297 297 297 298 298 298 299 299 299 300 300 301 309 311 311 308 306 306 309 316 317 318 319 321 321 320 321 321 320 320 320 319 319 319 319 319 319 319 320 322 326 330
300 298 298 297 297 297 298 298 298 299 299 299 300 300 306 310 308 306 306 307 311 311 315 317 319 319 320 320 320 319 320 320 320 320 319 320 320 319 320 319 320 321 324 328 331
300 297 297 296 297 297 297 298 298 298 299 299 300 301 308 308 307 307 307 306 311 313 312 315 317 318 317 319 318 318 319 320 320 320 320 320 321 321 320 320 320 324 326 330 331
300 297 297 296 296 297 297 297 298 298 299 299 301 308 310 307 306 305 306 306 306 308 309 310 308 309 314 317 319 320 320 321 321 322 321 321 321 322 322 322 324 325 325 329 331
300 299 297 296 296 296 297 297 298 298 299 301 310 310 311 306 308 311 313 308 310 307 307 306 306 312 313 316 317 319 321 322 323 323 322 321 322 322 324 324 324 324 324 326 331
301 300 300 297 295 296 296 297 303 304 306 308 311 309 310 308 307 309 309 314 316 316 312 308 310 313 315 316 318 319 321 322 323 323 323 322 322 322 322 324 324 323 323 325 328
301 301 300 299 295 295 296 304 305 310 306 304 305 307 305 305 307 308 310 313 315 315 316 311 312 312 314 317 317 319 321 323 323 323 322 322 323 322 322 322 323 323 323 324 327
300 300 300 299 296 295 302 304 302 302 304 304 304 305 305 306 308 309 308 312 314 316 315 315 313 314 314 315 318 318 320 322 322 322 322 322 323 322 322 322 321 323 323 324 326
299 299 299 298 295 300 302 302 302 303 306 306 307 309 311 310 311 311 309 308 312 315 315 317 318 315 313 315 315 318 320 321 322 321 322 322 322 323 322 322 320 321 323 323 325
298 298 298 298 300 302 303 302 302 304 309 310 310 312 312 311 313 311 311 310 310 311 313 315 315 316 316 315 315 316 318 318 319 320 322 322 323 323 323 321 322 323 323 324 324
298 298 298 298 299 301 302 301 302 306 306 308 312 311 310 313 312 312 312 311 311 310 313 314 315 316 317 315 315 315 316 317 318 320 321 321 322 322 323 322 322 323 323 323 325
298 297 297 298 301 301 301 300 305 310 305 308 310 311 310 311 312 311 313 311 311 313 312 311 312 315 316 316 316 316 317 317 319 320 323 322 323 323 323 323 325 325 323 324 325
297 297 297 299 301 302 300 302 307 305 305 306 308 308 309 310 311 310 312 314 315 314 315 313 311 311 312 313 316 316 317 319 321 324 325 323 324 324 323 323 325 324 324 325 326
297 296 298 299 300 300 301 303 305 305 306 307 306 306 307 309 309 309 309 313 314 314 315 314 314 312 310 312 314 316 316 321 320 323 325 324 323 323 323 322 323 324 323 324 326
296 297 299 300 300 300 301 302 302 304 305 304 304 303 304 308 307 307 309 313 315 311 315 316 316 314 310 310 313 314 318 318 320 321 323 325 324 323 324 324 324 323 323 323 326
298 299 300 300 300 299 302 302 302 302 302 302 301 302 302 304 305 305 306 311 314 311 310 314 315 315 313 312 312 313 315 318 319 321 321 321 322 324 324 322 323 324 324 323 324
298 299 300 300 299 299 302 302 301 300 300 301 301 301 302 303 303 305 304 306 305 309 307 309 315 316 315 316 314 312 314 315 317 318 321 323 323 323 323 322 323 324 324 324 325
297 302 300 300 300 300 302 301 299 300 299 300 300 301 302 302 303 303 303 303 303 303 303 308 311 316 315 316 316 317 315 315 319 317 318 322 323 322 322 322 322 324 324 324 324
297 299 299 300 302 302 301 301 300 300 300 300 300 300 301 302 301 302 302 302 302 304 308 309 309 312 313 314 316 317 318 318 317 317 317 321 321 321 321 322 321 321 322 323 324
297 300 299 299 300 302 302 302 301 300 300 300 301 301 301 301 302 302 303 304 304 306 305 306 308 310 313 313 313 316 317 318 319 320 320 319 318 319 320 320 320 320 321 321 324
297 300 300 301 300 301 301 302 301 301 301 301 301 301 301 302 302 303 304 304 304 304 305 307 309 308 308 309 309 310 311 312 314 316 319 320 319 320 320 320 319 319 319 320 323
297 299 298 299 299 300 300 301 302 300 301 301 301 302 303 301 301 301 302 303 304 305 305 307 310 309 309 309 309 310 310 310 311 312 314 316 317 317 318 317 319 319 319 319 320
296 297 298 299 300 300 301 300 301 301 301 301 302 302 302 302 303 304 304 305 305 307 308 309 309 309 311 309 309 312 311 310 310 310 311 314 316 317 319 319 318 318 318 318 320